Location: Blienschwiller
(48.3416°N, 7.4182°E)
Time: 23:31:24
(UTC+00:00)

Cosmos 921 Rocket - Pass Details

Date: 18 February 2020
Orbit: 572 x 631 km, 75.8° (Epoch: 05 April)

Event Time Altitude Azimuth Distance (km) Brightness Sun altitude
Rises 05:53:59 0° 328° (NNW) 2,911 6.1 -7.2°
Reaches altitude 10° 05:56:37 10° 314° (NW) 1,990 5.2 -6.8°
Maximum altitude 06:00:03 23° 263° (W) 1,330 4.2 -6.2°
Drops below altitude 10° 06:03:27 10° 212° (SSW) 1,949 5.4 -5.7°
Sets 06:06:00 0° 197° (SSW) 2,835 6.4 -5.2°
